When you browse on this site, cookies collect data to enhance your experience and personalize the content and advertising you see.
Visit our Privacy Policy to learn more. By continuing to use the site, you agree to this use of cookies and data.
  • In Schweiz
  • Länderverzeichnis
  • Für 7 Tage
  • Wassertemperatur
  • Wetterkarte
  • Widgets
  • user-avatar
    Anmelden

    Stündliche Wetter Seevetal

    Heute, 28 Mai, Donnerstag

    Zeit Temperatur Niederschläge Wind Luftdruck Luftfeuchtigkeit
    00:00 +8°C° 0 mm 3 m/S 770 mmHg 88%
    01:00 +7°C° 0 mm 3 m/S 771 mmHg 94%
    02:00 +7°C° 0 mm 3 m/S 770 mmHg 94%
    03:00 +5°C° 0 mm 3 m/S 770 mmHg 94%
    04:00 +5°C° 0 mm 3 m/S 770 mmHg 94%
    05:00 +7°C° 0 mm 3 m/S 770 mmHg 89%
    06:00 +8°C° 0 mm 3 m/S 770 mmHg 83%
    07:00 +10°C° 0 mm 3 m/S 770 mmHg 77%
    08:00 +11°C° 0 mm 3 m/S 770 mmHg 70%
    09:00 +13°C° 0 mm 3 m/S 770 mmHg 62%
    10:00 +15°C° 0 mm 4 m/S 770 mmHg 55%
    11:00 +15°C° 0 mm 4 m/S 770 mmHg 53%
    12:00 +17°C° 0 mm 4 m/S 770 mmHg 50%
    13:00 +19°C° 0 mm 3 m/S 770 mmHg 47%
    14:00 +19°C° 0 mm 3 m/S 769 mmHg 48%
    15:00 +19°C° 0 mm 3 m/S 769 mmHg 49%
    16:00 +19°C° 0 mm 3 m/S 769 mmHg 50%
    17:00 +18°C° 0 mm 3 m/S 769 mmHg 56%
    18:00 +17°C° 0 mm 3 m/S 769 mmHg 62%
    19:00 +16°C° 0 mm 2 m/S 769 mmHg 68%
    20:00 +14°C° 0 mm 2 m/S 769 mmHg 75%
    21:00 +12°C° 0 mm 2 m/S 769 mmHg 82%
    22:00 +10°C° 0 mm 1 m/S 769 mmHg 88%
    23:00 +9°C° 0 mm 1 m/S 769 mmHg 90%

    Morgen, 29 Mai, Freitag

    Zeit Temperatur Niederschläge Wind Luftdruck Luftfeuchtigkeit
    00:00 +9°C° 0 mm 1 m/S 769 mmHg 91%
    01:00 +8°C° 0 mm 1 m/S 769 mmHg 92%
    02:00 +8°C° 0 mm 1 m/S 769 mmHg 93%
    03:00 +7°C° 0 mm 1 m/S 769 mmHg 93%
    04:00 +7°C° 0 mm 1 m/S 769 mmHg 93%
    05:00 +9°C° 0 mm 1 m/S 769 mmHg 86%
    06:00 +11°C° 0 mm 1 m/S 769 mmHg 79%
    07:00 +13°C° 0 mm 1 m/S 769 mmHg 71%
    08:00 +15°C° 0 mm 1 m/S 769 mmHg 63%
    09:00 +18°C° 0 mm 1 m/S 769 mmHg 54%
    10:00 +20°C° 0 mm 1 m/S 769 mmHg 45%
    11:00 +21°C° 0 mm 1 m/S 769 mmHg 43%
    12:00 +21°C° 0 mm 1 m/S 768 mmHg 40%
    13:00 +22°C° 0 mm 1 m/S 768 mmHg 38%
    14:00 +22°C° 0 mm 1 m/S 768 mmHg 39%
    15:00 +21°C° 0 mm 2 m/S 767 mmHg 41%
    16:00 +20°C° 0 mm 2 m/S 767 mmHg 42%
    17:00 +19°C° 0 mm 3 m/S 766 mmHg 52%
    18:00 +18°C° 0 mm 3 m/S 766 mmHg 62%
    19:00 +16°C° 0 mm 3 m/S 766 mmHg 72%
    20:00 +13°C° 0 mm 3 m/S 766 mmHg 76%
    21:00 +12°C° 0 mm 2 m/S 766 mmHg 80%
    22:00 +9°C° 0 mm 2 m/S 766 mmHg 83%
    23:00 +8°C° 0 mm 2 m/S 766 mmHg 81%

    übermorgen, 30 Mai, Samstag

    Zeit Temperatur Niederschläge Wind Luftdruck Luftfeuchtigkeit
    00:00 +8°C° 0 mm 2 m/S 766 mmHg 78%
    01:00 +7°C° 0 mm 2 m/S 766 mmHg 75%
    02:00 +7°C° 0 mm 1 m/S 766 mmHg 78%
    03:00 +7°C° 0 mm 1 m/S 766 mmHg 80%
    04:00 +6°C° 0 mm 1 m/S 766 mmHg 83%
    05:00 +8°C° 0 mm 1 m/S 766 mmHg 77%
    06:00 +10°C° 0 mm 1 m/S 766 mmHg 72%
    07:00 +12°C° 0 mm 1 m/S 767 mmHg 67%
    08:00 +14°C° 0 mm 1 m/S 766 mmHg 59%
    09:00 +16°C° 0 mm 1 m/S 766 mmHg 52%
    10:00 +18°C° 0 mm 2 m/S 766 mmHg 45%
    11:00 +19°C° 0 mm 2 m/S 766 mmHg 45%
    12:00 +19°C° 0 mm 2 m/S 766 mmHg 45%
    13:00 +20°C° 0 mm 3 m/S 766 mmHg 45%
    14:00 +20°C° 0 mm 3 m/S 765 mmHg 46%
    15:00 +20°C° 0 mm 3 m/S 765 mmHg 48%
    16:00 +20°C° 0 mm 4 m/S 765 mmHg 50%
    17:00 +19°C° 0.1 mm 3 m/S 765 mmHg 56%
    18:00 +18°C° 0.1 mm 3 m/S 764 mmHg 63%
    19:00 +17°C° 0.1 mm 3 m/S 764 mmHg 70%
    20:00 +14°C° 0 mm 3 m/S 765 mmHg 76%
    21:00 +13°C° 0 mm 2 m/S 765 mmHg 83%
    22:00 +12°C° 0 mm 2 m/S 765 mmHg 89%
    23:00 +10°C° 0 mm 2 m/S 765 mmHg 88%

    31 Mai, Sonntag

    Zeit Temperatur Niederschläge Wind Luftdruck Luftfeuchtigkeit
    00:00 +9°C° 0 mm 2 m/S 765 mmHg 87%
    01:00 +8°C° 0 mm 2 m/S 765 mmHg 86%
    02:00 +7°C° 0 mm 2 m/S 765 mmHg 85%
    03:00 +8°C° 0 mm 1 m/S 765 mmHg 84%
    04:00 +8°C° 0 mm 1 m/S 765 mmHg 82%
    05:00 +9°C° 0 mm 2 m/S 765 mmHg 78%
    06:00 +10°C° 0 mm 2 m/S 765 mmHg 73%
    07:00 +12°C° 0 mm 3 m/S 765 mmHg 69%
    08:00 +13°C° 0 mm 3 m/S 765 mmHg 64%
    09:00 +15°C° 0 mm 4 m/S 765 mmHg 60%
    10:00 +17°C° 0 mm 4 m/S 765 mmHg 56%
    11:00 +18°C° 0 mm 4 m/S 764 mmHg 54%
    12:00 +19°C° 0 mm 5 m/S 764 mmHg 52%
    13:00 +19°C° 0 mm 5 m/S 764 mmHg 50%
    14:00 +19°C° 0 mm 5 m/S 764 mmHg 52%
    15:00 +19°C° 0 mm 5 m/S 764 mmHg 53%
    16:00 +19°C° 0 mm 5 m/S 764 mmHg 54%
    17:00 +17°C° 0 mm 5 m/S 764 mmHg 58%
    18:00 +17°C° 0 mm 4 m/S 764 mmHg 62%
    19:00 +15°C° 0 mm 4 m/S 764 mmHg 66%
    20:00 +14°C° 0 mm 3 m/S 764 mmHg 70%
    21:00 +12°C° 0 mm 3 m/S 764 mmHg 74%
    22:00 +10°C° 0 mm 3 m/S 764 mmHg 78%
    23:00 +10°C° 0 mm 3 m/S 764 mmHg 82%

    1 Juni, Montag

    Zeit Temperatur Niederschläge Wind Luftdruck Luftfeuchtigkeit
    00:00 +9°C° 0 mm 3 m/S 764 mmHg 86%
    01:00 +8°C° 0 mm 2 m/S 764 mmHg 91%
    02:00 +8°C° 0 mm 2 m/S 764 mmHg 92%
    03:00 +7°C° 0 mm 2 m/S 764 mmHg 94%
    04:00 +7°C° 0 mm 2 m/S 764 mmHg 96%
    05:00 +9°C° 0 mm 2 m/S 764 mmHg 91%
    06:00 +10°C° 0 mm 2 m/S 764 mmHg 85%
    07:00 +13°C° 0 mm 2 m/S 764 mmHg 80%
    08:00 +14°C° 0 mm 3 m/S 764 mmHg 73%
    09:00 +17°C° 0 mm 3 m/S 764 mmHg 67%
    10:00 +20°C° 0 mm 3 m/S 764 mmHg 61%
    11:00 +20°C° 0 mm 3 m/S 763 mmHg 59%
    12:00 +21°C° 0 mm 3 m/S 763 mmHg 57%
    13:00 +22°C° 0 mm 3 m/S 763 mmHg 56%
    14:00 +22°C° 0 mm 3 m/S 763 mmHg 55%
    15:00 +23°C° 0 mm 4 m/S 762 mmHg 55%
    16:00 +23°C° 0 mm 4 m/S 762 mmHg 54%
    17:00 +22°C° 0 mm 3 m/S 762 mmHg 61%
    18:00 +21°C° 0 mm 3 m/S 762 mmHg 67%
    19:00 +20°C° 0 mm 3 m/S 761 mmHg 73%
    20:00 +18°C° 0 mm 3 m/S 761 mmHg 79%
    21:00 +17°C° 0 mm 3 m/S 762 mmHg 85%
    22:00 +14°C° 0 mm 3 m/S 762 mmHg 90%
    23:00 +13°C° 0 mm 3 m/S 761 mmHg 92%

    2 Juni, Dienstag

    Zeit Temperatur Niederschläge Wind Luftdruck Luftfeuchtigkeit
    00:00 +13°C° 0 mm 2 m/S 761 mmHg 93%
    01:00 +12°C° 0 mm 2 m/S 761 mmHg 94%
    02:00 +12°C° 0 mm 2 m/S 761 mmHg 95%
    03:00 +12°C° 0 mm 2 m/S 761 mmHg 95%
    04:00 +12°C° 0 mm 2 m/S 760 mmHg 95%
    05:00 +13°C° 0 mm 2 m/S 760 mmHg 88%
    06:00 +15°C° 0 mm 2 m/S 760 mmHg 82%
    07:00 +17°C° 0 mm 3 m/S 760 mmHg 75%
    08:00 +19°C° 0 mm 3 m/S 760 mmHg 67%
    09:00 +20°C° 0 mm 4 m/S 760 mmHg 60%
    10:00 +22°C° 0 mm 4 m/S 760 mmHg 52%
    11:00 +23°C° 0 mm 5 m/S 759 mmHg 50%
    12:00 +25°C° 0 mm 5 m/S 759 mmHg 48%
    13:00 +25°C° 0 mm 5 m/S 758 mmHg 46%
    14:00 +25°C° 0 mm 5 m/S 758 mmHg 47%
    15:00 +25°C° 0 mm 5 m/S 757 mmHg 48%
    16:00 +25°C° 0 mm 5 m/S 757 mmHg 49%
    17:00 +23°C° 0 mm 4 m/S 756 mmHg 54%
    18:00 +22°C° 0 mm 4 m/S 756 mmHg 59%
    19:00 +22°C° 0 mm 3 m/S 756 mmHg 63%
    20:00 +20°C° 0 mm 3 m/S 756 mmHg 68%
    21:00 +19°C° 0 mm 3 m/S 756 mmHg 72%
    22:00 +17°C° 0 mm 3 m/S 756 mmHg 77%
    23:00 +17°C° 0 mm 3 m/S 756 mmHg 78%
    Mehr zeigen